Temp
-15 -15 -15 -15 -15 -14 -14 -13 -14 -14 -14 -13 -12 -12 -13 -13 -12 -12 -12 -12 -12 -12 -12 -12 -12 -12 -12 -13 -13 -13 -13 -13
-15 -15 -15 -15 -14 -14 -13 -14 -14 -14 -14 -13 -13 -13 -12 -14 -12 -12 -12 -12 -12 -12 -12 -11 -12 -13 -13 -13 -13 -13 -13 -13
-14 -15 -15 -15 -14 -14 -13 -14 -14 -14 -14 -13 -13 -13 -12 -13 -13 -12 -12 -12 -12 -12 -11 -12 -12 -12 -12 -13 -13 -13 -13 -13
-14 -15 -15 -15 -14 -14 -14 -14 -14 -14 -14 -13 -13 -12 -13 -12 -12 -12 -12 -12 -12 -12 -12 -12 -12 -12 -12 -13 -13 -13 -13 -13
-15 -15 -15 -15 -14 -13 -14 -14 -14 -13 -14 -13 -13 -13 -13 -12 -12 -12 -12 -12 -12 -12 -12 -12 -12 -12 -13 -13 -12 -13 -13 -13
-15 -15 -16 -15 -14 -14 -14 -14 -13 -14 -13 -13 -13 -13 -13 -12 -12 -12 -12 -12 -12 -12 -12 -13 -13 -13 -13 -13 -13 -13 -13 -13
-15 -15 -16 -14 -14 -14 -14 -14 -14 -14 -14 -13 -13 -13 -13 -13 -12 -12 -12 -12 -12 -12 -12 -12 -12 -13 -13 -13 -13 -13 -13 -13
-14 -15 -15 -14 -14 -14 -14 -14 -14 -14 -14 -13 -13 -13 -13 -13 -13 -12 -12 -12 -12 -12 -12 -13 -13 -13 -13 -13 -13 -13 -13 -13
-14 -15 -16 -14 -14 -14 -14 -14 -14 -14 -14 -14 -14 -13 -13 -13 -12 -12 -12 -12 -12 -13 -13 -13 -13 -13 -13 -13 -13 -13 -13 -13
-15 -15 -16 -14 -14 -14 -15 -14 -14 -14 -14 -14 -14 -14 -13 -13 -12 -12 -12 -13 -13 -13 -13 -13 -13 -13 -13 -13 -13 -14 -14 -14
-15 -15 -16 -14 -14 -15 -15 -14 -14 -14 -14 -14 -14 -14 -14 -13 -13 -13 -13 -13 -13 -14 -14 -14 -14 -13 -14 -14 -14 -14 -14 -14
-15 -16 -16 -15 -14 -15 -15 -15 -15 -14 -14 -14 -14 -14 -14 -14 -13 -13 -14 -14 -13 -13 -13 -13 -14 -14 -14 -14 -15 -14 -14 -14
-15 -15 -15 -15 -15 -15 -15 -15 -14 -14 -14 -14 -14 -14 -14 -14 -14 -14 -14 -14 -14 -14 -14 -14 -14 -14 -14 -14 -14 -14 -14 -14
-15 -15 -15 -14 -14 -14 -14 -15 -14 -14 -14 -15 -15 -14 -14 -14 -14 -14 -14 -14 -14 -14 -14 -14 -14 -14 -14 -14 -14 -14 -14 -14
-15 -15 -15 -14 -14 -14 -14 -14 -14 -14 -14 -15 -15 -15 -14 -14 -15 -15 -15 -14 -14 -14 -14 -14 -14 -14 -15 -15 -15 -15 -15 -15
-15 -15 -15 -14 -14 -14 -14 -14 -15 -14 -15 -15 -15 -15 -15 -15 -15 -15 -15 -15 -15 -15 -15 -15 -15 -15 -15 -15 -15 -15 -15 -15
-15 -15 -14 -14 -15 -14 -15 -15 -15 -15 -15 -15 -15 -16 -15 -15 -16 -16 -16 -16 -16 -16 -16 -16 -16 -16 -15 -15 -15 -15 -15 -15
-15 -15 -15 -15 -15 -14 -14 -14 -14 -15 -15 -15 -15 -15 -15 -16 -16 -16 -16 -16 -16 -16 -16 -16 -16 -16 -15 -15 -15 -15 -16 -16
-15 -15 -15 -15 -14 -14 -14 -14 -15 -15 -15 -15 -15 -15 -15 -15 -15 -15 -15 -15 -16 -16 -15 -16 -15 -15 -15 -15 -16 -15 -15 -15
Height
5701 5705 5710 5709 5709 5709 5708 5707 5707 5706 5704 5701 5699 5699 5699 5698 5699 5700 5703 5706 5712 5717 5724 5732 5738 5745 5751 5755 5758 5761 5763 5766
5693 5698 5702 5701 5703 5703 5701 5702 5701 5701 5699 5696 5695 5695 5694 5693 5693 5695 5698 5701 5706 5713 5721 5728 5734 5742 5746 5750 5755 5757 5760 5763
5686 5691 5694 5695 5697 5697 5697 5697 5698 5696 5694 5692 5691 5691 5690 5688 5688 5692 5693 5696 5703 5711 5718 5727 5729 5735 5741 5747 5751 5754 5758 5760
5681 5685 5686 5688 5691 5691 5692 5692 5693 5692 5690 5688 5688 5686 5685 5684 5683 5687 5690 5691 5698 5707 5716 5722 5728 5730 5736 5742 5746 5750 5753 5754
5676 5677 5680 5683 5685 5686 5687 5689 5689 5689 5687 5685 5684 5682 5681 5680 5680 5685 5690 5694 5699 5706 5713 5718 5723 5728 5733 5736 5740 5744 5747 5749
5670 5672 5675 5678 5679 5682 5683 5685 5686 5686 5684 5683 5682 5680 5679 5678 5679 5682 5688 5693 5698 5704 5709 5715 5719 5724 5728 5732 5734 5737 5741 5743
5662 5664 5669 5672 5674 5678 5680 5681 5683 5683 5682 5682 5681 5680 5679 5678 5679 5681 5686 5691 5697 5702 5708 5713 5717 5720 5723 5726 5729 5730 5734 5737
5658 5661 5665 5667 5670 5674 5676 5679 5680 5680 5680 5680 5680 5679 5679 5679 5678 5678 5684 5689 5695 5699 5704 5709 5712 5715 5718 5721 5723 5725 5727 5730
5653 5657 5661 5664 5667 5670 5672 5676 5677 5678 5678 5678 5678 5678 5678 5678 5679 5680 5683 5686 5691 5697 5700 5704 5707 5710 5713 5715 5717 5719 5721 5724
5649 5652 5656 5660 5665 5667 5668 5672 5675 5676 5676 5676 5676 5676 5677 5677 5677 5678 5681 5684 5688 5692 5696 5699 5701 5704 5706 5709 5712 5715 5716 5719
5646 5650 5653 5657 5661 5663 5665 5668 5671 5673 5674 5674 5674 5675 5676 5676 5676 5677 5680 5683 5687 5690 5694 5696 5699 5701 5704 5706 5708 5710 5712 5712
5641 5646 5650 5654 5657 5659 5661 5664 5666 5669 5671 5672 5672 5673 5674 5675 5675 5676 5680 5683 5686 5688 5691 5693 5695 5697 5700 5703 5705 5706 5707 5708
5637 5640 5644 5649 5651 5654 5657 5660 5664 5666 5668 5670 5671 5672 5673 5675 5676 5677 5679 5682 5684 5687 5689 5691 5691 5694 5696 5698 5700 5701 5702 5702
5632 5636 5640 5644 5647 5649 5652 5657 5660 5662 5663 5666 5668 5671 5673 5674 5675 5677 5678 5679 5681 5682 5684 5686 5688 5690 5692 5693 5693 5694 5694 5695
5627 5631 5635 5639 5642 5644 5647 5651 5655 5658 5661 5664 5665 5667 5670 5671 5673 5674 5675 5677 5679 5681 5682 5684 5685 5687 5687 5687 5687 5687 5687 5688
5623 5626 5630 5634 5637 5640 5644 5649 5653 5656 5658 5659 5662 5664 5666 5668 5669 5671 5673 5674 5676 5677 5678 5679 5680 5681 5681 5681 5681 5681 5682 5683
5618 5621 5624 5628 5631 5634 5638 5642 5644 5647 5651 5654 5657 5659 5660 5662 5664 5666 5667 5669 5670 5672 5673 5673 5674 5674 5673 5672 5672 5673 5674 5676
5612 5616 5619 5623 5625 5628 5632 5635 5637 5641 5644 5647 5650 5652 5654 5656 5658 5659 5661 5662 5663 5665 5665 5665 5666 5664 5664 5665 5665 5665 5665 5666
5605 5609 5612 5616 5619 5623 5626 5629 5633 5636 5639 5641 5644 5645 5647 5649 5651 5653 5654 5655 5656 5656 5656 5657 5657 5656 5658 5657 5656 5655 5655 5656
Wind_Speed
40 35 36 40 34 29 25 22 19 22 25 22 20 15 18 14 21 28 23 22 28 43 47 43 32 26 27 27 24 25 29 27
34 32 38 39 33 24 20 19 17 20 21 18 17 19 18 19 19 25 25 23 31 47 46 36 29 32 28 26 25 23 22 22
28 32 37 36 30 22 19 15 17 17 19 16 18 19 22 20 18 22 21 26 38 48 41 33 30 28 26 25 26 21 23 26
24 30 38 29 25 20 19 14 15 14 17 15 15 14 15 17 20 21 14 34 46 50 39 30 30 23 23 24 24 21 21 28
29 37 27 28 23 19 17 14 12 12 13 12 11 10 11 10 20 21 14 37 46 45 37 31 30 27 22 23 27 27 27 26
29 33 26 27 23 20 15 12 11 11 10 10 8 8 11 10 17 26 22 32 40 36 28 28 29 26 26 26 25 28 29 26
36 31 31 26 23 20 13 11 9 10 9 8 7 7 11 10 8 28 27 23 27 20 25 31 29 27 26 26 28 29 27 27
34 33 31 26 23 21 14 12 9 9 9 8 6 7 7 7 11 11 25 26 29 30 24 25 27 31 29 30 31 30 29 29
28 24 29 25 23 21 15 14 9 6 6 6 4 5 6 6 8 11 26 27 26 25 22 27 30 32 33 28 27 26 26 27
27 24 29 24 23 22 18 15 11 7 6 6 4 3 4 5 5 14 16 19 23 25 27 27 24 23 24 23 22 21 24 25
23 22 28 26 26 24 18 17 14 12 9 7 7 6 5 4 2 14 19 17 17 15 15 17 18 20 21 20 19 22 24 25
25 28 26 24 25 22 18 20 18 16 12 9 8 9 9 7 4 7 15 18 20 19 20 21 22 21 22 23 22 22 19 20
34 30 28 23 23 23 21 20 19 18 17 14 11 8 9 9 9 9 12 13 14 14 13 12 12 16 17 19 22 24 22 21
28 28 28 26 23 23 24 21 21 19 19 17 12 10 13 13 12 12 14 15 15 16 16 16 16 17 18 21 23 24 24 25
28 29 26 26 22 23 25 25 23 22 19 18 16 14 11 10 13 14 14 15 17 18 18 18 19 20 22 24 26 26 26 28
34 31 25 22 20 21 23 22 22 22 21 20 18 17 16 15 14 16 18 19 19 19 20 22 24 25 28 30 31 31 32 33
37 33 27 23 23 24 27 26 26 26 25 23 21 21 21 21 21 20 20 20 22 23 24 24 24 25 27 29 30 31 32 32
39 36 33 28 29 30 27 30 27 27 27 26 27 27 26 25 27 26 25 26 27 28 29 30 30 32 32 32 33 35 36 36
38 39 37 37 33 31 29 28 23 21 21 20 21 22 22 27 30 29 29 29 31 33 33 36 37 38 37 39 39 41 42 41
Wind_Direction
255 256 260 264 266 268 266 265 273 284 284 287 283 257 267 281 255 229 215 229 219 205 195 206 207 202 203 202 209 210 220 235
245 242 257 257 261 262 254 260 281 280 288 283 265 258 271 288 266 227 219 241 212 190 199 208 207 205 186 183 191 206 218 228
241 243 249 255 257 251 247 265 271 281 291 280 271 260 268 267 251 216 224 228 195 189 199 204 197 197 200 202 210 208 220 230
236 240 249 248 252 240 249 262 263 281 294 283 275 272 272 276 234 219 235 193 195 198 197 200 200 195 204 206 208 222 239 246
230 239 231 243 243 233 247 257 262 276 292 282 274 259 278 276 220 214 210 191 193 194 201 198 204 208 225 229 232 243 249 244
228 242 220 237 232 230 239 251 254 264 283 293 273 263 282 272 229 209 205 201 207 204 199 204 206 214 228 235 243 242 241 241
234 214 220 226 223 227 227 245 256 258 267 287 293 267 276 281 251 217 214 195 203 219 211 216 234 230 231 243 240 237 233 237
233 211 226 231 214 220 220 234 246 246 248 263 282 284 286 278 272 223 190 198 207 215 223 220 239 233 246 247 241 235 243 245
221 207 223 228 210 212 217 231 227 229 225 243 256 282 291 292 259 247 217 231 218 221 224 235 238 243 247 238 244 242 245 247
198 203 227 218 205 209 213 225 224 218 210 217 236 258 279 282 266 231 228 219 222 230 230 217 226 239 242 238 238 244 244 245
203 202 226 217 207 208 209 220 225 219 218 220 231 246 261 268 298 206 215 224 230 231 236 239 239 235 242 237 247 251 252 257
191 203 220 220 209 204 206 214 223 227 226 229 233 228 239 251 213 161 208 218 224 232 240 243 241 238 239 247 256 258 262 262
202 207 223 217 202 202 211 216 220 228 231 234 236 233 221 218 223 206 198 202 211 220 229 233 228 229 237 243 246 251 254 260
206 207 217 222 214 219 218 224 225 227 233 239 243 241 237 239 241 235 227 225 226 231 235 237 237 239 241 245 250 254 255 256
205 214 221 225 222 222 223 227 231 233 240 241 248 258 257 255 245 242 241 240 243 246 247 250 250 250 249 246 248 252 255 260
215 220 226 233 229 232 231 236 241 240 243 248 254 260 264 263 255 247 243 250 257 260 259 259 259 257 257 256 256 258 260 262
216 221 224 229 235 229 224 226 226 231 235 238 242 247 250 254 254 253 254 253 255 259 263 264 265 264 263 264 266 269 272 275
219 222 225 233 234 234 236 237 232 234 236 245 252 251 250 252 255 252 247 252 256 261 262 263 266 268 270 274 275 275 276 277
219 219 226 229 235 244 243 243 233 237 243 244 256 261 262 265 267 267 263 259 263 264 267 267 266 275 276 274 273 276 280 281